Date String (YYYY-MM-DD hh:mm:ss) UTC,Instrument flags,absolute air pressure of the measurement (hPa),sample flow rate (lpm),inlet stack bypass flow (lpm),air temperature of the measurement (°C),ambient temperature measured by the external sensor (°C),aerosol sample conditioner tube jacket temperature (°C),OPC LED temperature (°C),internal box temperature (°C),relative humidity of the measurement (%),span deviation,mass concentration of particles derived from Lorenz-Mie calculation of OPC scattering (μg/m³),mass concentration of particles derived from Lorenz-Mie calculation of OPC scattering (μg/m³),mass concentration of particles derived from Lorenz-Mie calculation of OPC scattering (μg/m³)
DateTimeUTC,F1_M11,P_M11,Q1_M11,Q2_M11,T1_M11,T2_M11,T3_M11,T4_M11,T5_M11,U1_M11,ZSPAN_M11,X2_M11,X0_M11,X1_M11
2023-12-07 17:00:00,SystemResetWarning,0819.9,4.99,000.00,023.9,022.9,000.0,032.2,025.2,11.7,0000.0,0001.20,0004.30,0000.71
2023-12-07 17:01:00,SystemResetWarning,0819.8,5.02,000.00,023.9,022.9,000.0,032.2,025.1,11.9,0000.0,0001.25,0004.59,0000.71
2023-12-07 17:02:00,SystemResetWarning,0819.9,5.01,000.00,023.9,022.9,000.0,032.2,025.1,11.9,0000.0,0001.29,0005.02,0000.73
2023-12-07 17:03:00,SystemResetWarning,0820.0,4.99,000.00,023.9,022.9,000.0,032.2,025.1,11.8,0000.0,0001.32,0006.19,0000.74
2023-12-07 17:04:00,SystemResetWarning,0820.0,4.99,000.00,023.9,022.9,000.0,032.2,025.1,11.5,0000.0,0001.33,0006.92,0000.75
2023-12-07 17:05:00,SystemResetWarning,0819.9,5.00,000.00,023.9,022.9,000.0,032.2,025.1,11.5,0000.0,0001.34,0006.88,0000.76
2023-12-07 17:06:00,SystemResetWarning,0819.8,5.00,000.00,023.9,022.9,000.0,032.2,025.1,11.4,0000.0,0001.36,0006.97,0000.77
2023-12-07 17:07:00,SystemResetWarning,0820.0,5.00,000.00,023.9,022.9,000.0,032.2,025.1,11.4,0000.0,0001.34,0006.94,0000.76
2023-12-07 17:08:00,SystemResetWarning,0819.9,5.00,000.00,023.9,022.9,000.0,032.2,025.2,11.2,0000.0,0001.32,0006.75,0000.75
2023-12-07 17:09:00,SystemResetWarning,0819.5,5.00,000.00,023.9,022.9,000.0,032.2,025.1,11.2,0000.0,0001.25,0005.11,0000.75
2023-12-07 17:10:00,SystemResetWarning,0819.5,5.00,000.00,023.8,022.9,000.0,032.2,025.1,11.4,0000.0,0001.18,0004.69,0000.75
2023-12-07 17:11:00,SystemResetWarning,0819.6,5.00,000.00,023.8,022.9,000.0,032.2,025.1,11.3,0000.0,0001.18,0004.95,0000.75
2023-12-07 17:12:00,SystemResetWarning,0819.9,5.00,000.00,023.8,022.8,000.0,032.2,025.1,11.3,0000.0,0001.14,0005.90,0000.75
2023-12-07 17:13:00,SystemResetWarning,0819.7,5.01,000.00,023.8,022.8,000.0,032.2,025.1,11.5,0000.0,0001.10,0005.46,0000.75
2023-12-07 17:14:00,SystemResetWarning,0819.9,5.00,000.00,023.8,022.8,000.0,032.2,025.1,11.7,0000.0,0001.06,0004.29,0000.74
2023-12-07 17:15:00,SystemResetWarning,0819.8,5.01,000.00,023.8,022.8,000.0,032.2,025.1,11.7,0000.0,0001.05,0003.66,0000.72
2023-12-07 17:16:00,SystemResetWarning,0819.8,5.01,000.00,023.8,022.8,000.0,032.2,025.1,11.7,0000.0,0001.08,0003.89,0000.72
2023-12-07 17:17:00,SystemResetWarning,0819.5,4.99,000.00,023.8,022.8,000.0,032.2,025.1,11.5,0000.0,0001.08,0004.27,0000.70
2023-12-07 17:18:00,SystemResetWarning,0819.8,4.99,000.00,023.8,022.8,000.0,032.2,025.1,11.0,0000.0,0001.12,0004.53,0000.71
2023-12-07 17:19:00,SystemResetWarning,0819.8,5.03,000.00,023.8,022.8,000.0,032.2,025.1,11.0,0000.0,0001.17,0005.51,0000.71
2023-12-07 17:20:00,SystemResetWarning,0819.6,4.99,000.00,023.8,022.8,000.0,032.2,025.1,11.4,0000.0,0001.17,0005.51,0000.72
2023-12-07 17:21:00,SystemResetWarning,0819.9,4.99,000.00,023.8,022.8,000.0,032.2,025.1,11.7,0000.0,0001.18,0005.54,0000.71
2023-12-07 17:22:00,SystemResetWarning,0819.8,5.00,000.00,023.8,022.8,000.0,032.2,025.1,11.8,0000.0,0001.13,0004.96,0000.70
2023-12-07 17:23:00,SystemResetWarning,0819.7,5.01,000.00,023.8,022.9,000.0,032.2,025.1,11.0,0000.0,0001.11,0003.68,0000.68
2023-12-07 17:24:00,SystemResetWarning,0819.8,5.01,000.00,023.8,022.9,000.0,032.2,025.1,10.5,0000.0,0001.11,0003.62,0000.69
2023-12-07 17:25:00,SystemResetWarning,0819.8,5.00,000.00,023.8,022.8,000.0,032.2,025.1,10.3,0000.0,0001.12,0003.65,0000.69
2023-12-07 17:26:00,SystemResetWarning,0819.8,4.99,000.00,023.8,022.8,000.0,032.2,025.1,10.1,0000.0,0001.10,0003.48,0000.69
2023-12-07 17:27:00,SystemResetWarning,0819.9,4.99,000.00,023.8,022.8,000.0,032.2,025.1,10.3,0000.0,0001.03,0003.15,0000.69
2023-12-07 17:28:00,SystemResetWarning,0819.6,5.00,000.00,023.8,022.9,000.0,032.2,025.2,10.4,0000.0,0001.01,0002.62,0000.69
2023-12-07 17:29:00,SystemResetWarning,0819.4,5.01,000.00,023.8,022.8,000.0,032.2,025.1,10.9,0000.0,0000.98,0002.54,0000.68
2023-12-07 17:30:00,SystemResetWarning,0819.4,4.99,000.00,023.8,022.8,000.0,032.2,025.1,11.4,0000.0,0000.95,0001.63,0000.68
2023-12-07 17:31:00,SystemResetWarning,0819.3,4.99,000.00,023.8,022.8,000.0,032.2,025.1,11.6,0000.0,0000.96,0002.30,0000.67
2023-12-07 17:32:00,SystemResetWarning,0819.2,5.01,000.00,023.8,022.8,000.0,032.2,025.1,11.2,0000.0,0001.03,0003.80,0000.68
2023-12-07 17:33:00,SystemResetWarning,0818.9,5.01,000.00,023.8,022.8,000.0,032.2,025.1,10.2,0000.0,0001.02,0004.81,0000.68
2023-12-07 17:34:00,SystemResetWarning,0818.6,4.99,000.00,023.8,022.8,000.0,032.2,025.1,10.8,0000.0,0001.02,0004.94,0000.68
2023-12-07 17:35:00,SystemResetWarning,0818.3,4.98,000.00,023.8,022.8,000.0,032.2,025.1,11.2,0000.0,0001.03,0006.48,0000.67
2023-12-07 17:36:00,SystemResetWarning,0818.8,5.03,000.00,023.8,022.8,000.0,032.2,025.1,10.4,0000.0,0000.99,0006.40,0000.66
2023-12-07 17:37:00,SystemResetWarning,0818.8,4.99,000.00,023.8,022.8,000.0,032.2,025.0,10.2,0000.0,0000.99,0006.42,0000.65
2023-12-07 17:38:00,SystemResetWarning,0819.3,4.99,000.00,023.8,022.8,000.0,032.1,025.0,10.0,0000.0,0000.99,0006.51,0000.63
2023-12-07 17:39:00,SystemResetWarning,0819.3,5.01,000.00,023.7,022.7,000.0,032.1,025.0,10.2,0000.0,0001.01,0006.59,0000.64
2023-12-07 17:40:00,SystemResetWarning,0819.2,5.00,000.00,023.8,022.7,000.0,032.1,025.0,10.3,0000.0,0001.03,0007.05,0000.65
2023-12-07 17:41:00,SystemResetWarning,0819.3,5.01,000.00,023.7,022.7,000.0,032.1,025.0,10.4,0000.0,0001.05,0007.37,0000.66
2023-12-07 17:42:00,SystemResetWarning,0819.3,4.99,000.00,023.8,022.8,000.0,032.1,025.0,10.7,0000.0,0001.07,0007.28,0000.66
2023-12-07 17:43:00,SystemResetWarning,0819.1,4.99,000.00,023.7,022.8,000.0,032.1,025.0,11.1,0000.0,0001.01,0006.47,0000.64
2023-12-07 17:44:00,SystemResetWarning,0819.0,5.01,000.00,023.8,022.8,000.0,032.1,025.0,11.2,0000.0,0000.98,0005.21,0000.63
2023-12-07 17:45:00,SystemResetWarning,0819.0,5.01,000.00,023.8,022.8,000.0,032.1,025.0,10.9,0000.0,0001.04,0006.26,0000.64
2023-12-07 17:46:00,SystemResetWarning,0819.1,4.99,000.00,023.7,022.8,000.0,032.1,025.0,10.7,0000.0,0001.24,0007.08,0000.67
2023-12-07 17:47:00,SystemResetWarning,0819.1,4.99,000.00,023.7,022.8,000.0,032.1,025.0,10.5,0000.0,0001.36,0008.31,0000.68
2023-12-07 17:48:00,SystemResetWarning,0819.2,5.01,000.00,023.7,022.8,000.0,032.1,025.0,10.7,0000.0,0001.37,0008.49,0000.68
2023-12-07 17:49:00,SystemResetWarning,0819.0,5.00,000.00,023.7,022.8,000.0,032.1,025.1,10.8,0000.0,0001.38,0009.04,0000.68
2023-12-07 17:50:00,SystemResetWarning,0819.0,5.00,000.00,023.8,022.8,000.0,032.1,025.1,10.9,0000.0,0001.37,0009.21,0000.67
2023-12-07 17:51:00,SystemResetWarning,0819.0,4.99,000.00,023.8,022.8,000.0,032.1,025.0,11.0,0000.0,0001.34,0009.58,0000.67
2023-12-07 17:52:00,SystemResetWarning,0819.0,4.99,000.00,023.8,022.8,000.0,032.1,025.1,11.2,0000.0,0001.35,0009.55,0000.66
2023-12-07 17:53:00,SystemResetWarning,0818.7,4.99,000.00,023.8,022.8,000.0,032.1,025.1,11.3,0000.0,0001.37,0009.44,0000.66
2023-12-07 17:54:00,SystemResetWarning,0818.7,5.00,000.00,023.8,022.8,000.0,032.1,025.1,11.1,0000.0,0001.44,0009.80,0000.67
2023-12-07 17:55:00,SystemResetWarning,0818.9,5.01,000.00,023.8,022.8,000.0,032.1,025.1,11.3,0000.0,0001.49,0010.10,0000.68
2023-12-07 17:56:00,SystemResetWarning,0819.1,5.01,000.00,023.8,022.8,000.0,032.1,025.1,10.3,0000.0,0001.49,0010.19,0000.69
2023-12-07 17:57:00,SystemResetWarning,0819.1,5.00,000.00,023.8,022.8,000.0,032.1,025.2,10.6,0000.0,0001.34,0010.03,0000.67
2023-12-07 17:58:00,SystemResetWarning,0818.8,4.99,000.00,023.8,022.9,000.0,032.1,025.1,10.7,0000.0,0001.20,0009.89,0000.65
2023-12-07 17:59:00,SystemResetWarning,0818.8,5.00,000.00,023.8,022.9,000.0,032.1,025.1,10.6,0000.0,0001.22,0009.59,0000.66
